TimeMST,TemperatureF,Dew PointF,Humidity,Sea Level PressureIn,VisibilityMPH,Wind Direction,Wind SpeedMPH,Gust SpeedMPH,PrecipitationIn,Events,Conditions,WindDirDegrees,DateUTC
12:15 AM,10.4,8.6,92,29.67,10.0,NNE,4.6,-,N/A,,Scattered Clouds,20,2013-02-20 07:15:00
12:35 AM,10.4,8.6,92,29.66,10.0,North,6.9,-,N/A,,Scattered Clouds,360,2013-02-20 07:35:00
12:55 AM,10.4,8.6,92,29.66,10.0,North,6.9,-,N/A,,Mostly Cloudy,350,2013-02-20 07:55:00
1:15 AM,12.2,10.4,92,29.66,10.0,North,8.1,-,N/A,,Overcast,350,2013-02-20 08:15:00
1:55 AM,10.4,8.6,92,29.66,10.0,North,6.9,-,N/A,,Overcast,360,2013-02-20 08:55:00
2:15 AM,10.4,6.8,85,29.66,10.0,Calm,Calm,-,N/A,,Overcast,0,2013-02-20 09:15:00
2:35 AM,12.2,8.6,85,29.66,10.0,Calm,Calm,-,N/A,,Overcast,0,2013-02-20 09:35:00
2:55 AM,10.4,6.8,85,29.66,10.0,North,6.9,-,N/A,,Partly Cloudy,10,2013-02-20 09:55:00
3:15 AM,10.4,8.6,92,29.65,10.0,NNE,9.2,-,N/A,,Clear,30,2013-02-20 10:15:00
3:35 AM,10.4,8.6,92,29.66,10.0,North,4.6,-,N/A,,Partly Cloudy,10,2013-02-20 10:35:00
4:35 AM,8.6,6.8,92,29.66,10.0,North,8.1,-,N/A,,Mostly Cloudy,360,2013-02-20 11:35:00
4:55 AM,8.6,6.8,92,29.66,10.0,North,4.6,-,N/A,,Mostly Cloudy,360,2013-02-20 11:55:00
5:15 AM,6.8,5.0,92,29.66,10.0,North,6.9,-,N/A,,Overcast,10,2013-02-20 12:15:00
5:35 AM,6.8,3.2,85,29.66,10.0,North,8.1,-,N/A,,Scattered Clouds,10,2013-02-20 12:35:00
5:55 AM,3.2,3.2,100,29.66,10.0,North,8.1,-,N/A,,Mostly Cloudy,350,2013-02-20 12:55:00
6:15 AM,5.0,3.2,92,29.66,10.0,NNE,5.8,-,N/A,,Mostly Cloudy,20,2013-02-20 13:15:00
6:35 AM,6.8,3.2,85,29.66,10.0,North,5.8,-,N/A,,Mostly Cloudy,10,2013-02-20 13:35:00
6:52 AM,6.8,5.0,92,29.67,10.0,North,6.9,-,N/A,,Scattered Clouds,360,2013-02-20 13:52:00
7:54 AM,6.8,5.0,92,29.68,10.0,North,3.5,-,N/A,,Mostly Cloudy,10,2013-02-20 14:54:00
8:57 AM,8.6,6.8,92,29.68,10.0,North,3.5,-,N/A,,Mostly Cloudy,360,2013-02-20 15:57:00
10:04 AM,14.0,8.6,79,29.67,10.0,Calm,Calm,-,N/A,,Scattered Clouds,0,2013-02-20 17:04:00
10:54 AM,17.6,10.4,73,29.67,10.0,Calm,Calm,-,N/A,,Scattered Clouds,0,2013-02-20 17:54:00
11:58 AM,19.4,12.2,74,29.65,10.0,East,4.6,-,N/A,,Scattered Clouds,100,2013-02-20 18:58:00
12:53 PM,23.0,14.0,68,29.63,10.0,Calm,Calm,-,N/A,,Scattered Clouds,0,2013-02-20 19:53:00
1:55 PM,24.8,15.8,69,29.61,10.0,Calm,Calm,-,N/A,,Mostly Cloudy,0,2013-02-20 20:55:00
2:51 PM,26.6,15.8,64,29.60,10.0,Calm,Calm,-,N/A,,Mostly Cloudy,0,2013-02-20 21:51:00
3:55 PM,28.4,17.6,64,29.60,10.0,Calm,Calm,-,N/A,,Mostly Cloudy,0,2013-02-20 22:55:00
4:52 PM,28.4,17.6,64,29.60,10.0,ESE,3.5,-,N/A,,Mostly Cloudy,120,2013-02-20 23:52:00
5:51 PM,24.8,17.6,74,29.62,10.0,East,3.5,-,N/A,,Mostly Cloudy,100,2013-02-21 00:51:00
6:51 PM,26.6,19.4,74,29.64,10.0,Calm,Calm,-,N/A,,Mostly Cloudy,0,2013-02-21 01:51:00
7:51 PM,26.6,21.2,80,29.65,10.0,Calm,Calm,-,N/A,,Mostly Cloudy,0,2013-02-21 02:51:00
8:51 PM,24.8,21.2,86,29.65,10.0,ENE,3.5,-,N/A,,Mostly Cloudy,70,2013-02-21 03:51:00